Location: Asheville, NC
(35.6000°N, 82.5500°W)
Time: 19:31:17
(UTC-04:00)

KKS-1 - Pass Details

Date: 11 February 2018
Orbit: 637 x 650 km, 98.4° (Epoch: 27 May)

Event Time Altitude Azimuth Distance (km) Brightness Sun altitude
Rises 05:30:22 0° 175° (S) 2,921 ? -23.0°
Reaches altitude 10° 05:32:35 10° 179° (S) 2,017 ? -22.6°
Enters shadow 05:36:38 57° 241° (WSW) 754 ? -21.7°
